McHenry, MD

11:43 PM EDT on August 29, 2016 (GMT -0400)
Oakland

Weather History for K2G4 - January, 2013

Change the Weather History Date:

Sunday, January 6, 2013

  Actual Average (KMGW) Record (KMGW)
Temperature  
Mean Temperature 30 °F 31 °F  
Max Temperature 32 °F 39 °F 72 °F (1946)
Min Temperature 28 °F 24 °F -4 °F (2014)
Degree Days  
Heating Degree Days 35 34  
Month to date heating degree days 201  
Since 1 July heating degree days 2185  
Cooling Degree Days 0 0  
Month to date cooling degree days 0  
Year to date cooling degree days 0  
Moisture  
Dew Point 27 °F    
Average Humidity 87    
Maximum Humidity 100    
Minimum Humidity 75    
Precipitation  
Precipitation 0.00 in 0.09 in 1.18 in (1950)
Month to date precipitation 0.54  
Year to date precipitation 0.54  
Sea Level Pressure  
Sea Level Pressure 30.01 in    
Wind  
Wind Speed 11 mph (WSW)    
Max Wind Speed 15 mph    
Max Gust Speed 23 mph    
Visibility 9 miles    
Events      
T = Trace of Precipitation, MM = Missing Value Source: NWS Daily Summary

Daily Weather History Graph

Daily Weather History Graph

Search for Another Location

Airport or City:

Trip Planner

Search our weather history database for the weather conditions in past years. The results will help you decide how hot, cold, wet, or windy it might be!

Date:

Astronomy

Jan. 06, 2013 Rise Set
Actual Time 7:38 AM EST 5:08 PM EST
Civil Twilight 7:08 AM EST 5:38 PM EST
Nautical Twilight 6:34 AM EST 6:12 PM EST
Astronomical Twilight 6:02 AM EST 6:44 PM EST
Moon 1:51 AM EST (1/6) 12:34 PM EST (1/6)
Length of Visible Light 10h 30m
Length of Day
9h 30m
Waning Crescent, 33% of the Moon is Illuminated
Jan 6
Waning Crescent
Jan 11
New
Jan 18
First Quarter
Jan 26
Full
Feb 3
Last Quarter

Hourly Weather History & Observations

Time (EST) Temp. Windchill Dew Point Humidity Pressure Visibility Wind Dir Wind Speed Gust Speed Precip Events Conditions
12:00 AM 28.4 °F 18.5 °F 23.0 °F 80% 30.08 in 10.0 mi WSW 11.5 mph 17.3 mph N/A   Mostly Cloudy
12:20 AM 28.4 °F 19.7 °F 23.0 °F 80% 30.07 in 10.0 mi WSW 9.2 mph - N/A   Mostly Cloudy
12:40 AM 28.4 °F 19.7 °F 23.0 °F 80% 30.07 in 10.0 mi WSW 9.2 mph - N/A   Overcast
1:05 AM 30.2 °F 21.9 °F 23.0 °F 75% 30.06 in 10.0 mi WSW 9.2 mph 16.1 mph N/A   Overcast
1:25 AM 30.2 °F 21.3 °F 23.0 °F 75% 30.06 in 10.0 mi WSW 10.4 mph - N/A   Overcast
1:45 AM 30.2 °F 22.6 °F 23.0 °F 75% 30.05 in 10.0 mi West 8.1 mph - N/A   Overcast
2:05 AM 30.2 °F 20.2 °F 23.0 °F 75% 30.05 in 10.0 mi WSW 12.7 mph 18.4 mph N/A   Overcast
2:30 AM 30.2 °F 21.3 °F 23.0 °F 75% 30.05 in 10.0 mi WSW 10.4 mph - N/A   Overcast
2:50 AM 30.2 °F 20.8 °F 23.0 °F 75% 30.04 in 10.0 mi WSW 11.5 mph 18.4 mph N/A   Overcast
3:10 AM 30.2 °F 19.8 °F 24.8 °F 80% 30.04 in 10.0 mi West 13.8 mph 18.4 mph N/A   Overcast
3:30 AM 30.2 °F 20.8 °F 24.8 °F 80% 30.04 in 10.0 mi West 11.5 mph 18.4 mph N/A   Overcast
3:55 AM 28.4 °F 19.1 °F 24.8 °F 86% 30.03 in 10.0 mi West 10.4 mph 17.3 mph N/A   Overcast
4:15 AM 28.4 °F 19.1 °F 24.8 °F 86% 30.02 in 10.0 mi WSW 10.4 mph 18.4 mph N/A   Overcast
4:35 AM 28.4 °F 18.5 °F 24.8 °F 86% 30.01 in 10.0 mi West 11.5 mph 17.3 mph N/A   Overcast
5:00 AM 30.2 °F 20.2 °F 24.8 °F 80% 30.01 in 10.0 mi WSW 12.7 mph 19.6 mph N/A   Overcast
5:20 AM 28.4 °F 19.1 °F 24.8 °F 86% 30.00 in 10.0 mi WSW 10.4 mph 20.7 mph N/A   Overcast
5:40 AM 28.4 °F 18.0 °F 24.8 °F 86% 29.99 in 10.0 mi WSW 12.7 mph - N/A   Overcast
6:00 AM 28.4 °F 19.1 °F 24.8 °F 86% 30.01 in 10.0 mi WSW 10.4 mph 17.3 mph N/A   Overcast
6:25 AM 28.4 °F 18.5 °F 24.8 °F 86% 30.01 in 10.0 mi WSW 11.5 mph 18.4 mph N/A   Overcast
7:05 AM 28.4 °F 20.4 °F 26.6 °F 93% 30.01 in 10.0 mi WSW 8.1 mph 19.6 mph N/A   Overcast
7:25 AM 28.4 °F 21.2 °F 26.6 °F 93% 30.01 in 10.0 mi WSW 6.9 mph - N/A   Overcast
7:50 AM 28.4 °F 19.7 °F 26.6 °F 93% 30.00 in 10.0 mi WSW 9.2 mph 17.3 mph N/A   Overcast
8:10 AM 28.4 °F 19.7 °F 26.6 °F 93% 30.01 in 10.0 mi WSW 9.2 mph 16.1 mph N/A   Overcast
8:30 AM 30.2 °F 20.8 °F 26.6 °F 86% 30.01 in 10.0 mi WSW 11.5 mph 17.3 mph N/A   Overcast
8:50 AM 30.2 °F 21.3 °F 26.6 °F 86% 30.01 in 10.0 mi SW 10.4 mph 17.3 mph N/A   Overcast
9:15 AM 30.2 °F 19.3 °F 26.6 °F 86% 30.01 in 10.0 mi WSW 15.0 mph 19.6 mph N/A   Overcast
9:35 AM 30.2 °F 20.2 °F 26.6 °F 86% 30.02 in 10.0 mi WSW 12.7 mph - N/A   Overcast
10:15 AM 30.2 °F 21.9 °F 26.6 °F 86% 30.02 in 10.0 mi WSW 9.2 mph - N/A   Overcast
10:40 AM 30.2 °F 21.9 °F 26.6 °F 86% 30.02 in 10.0 mi WSW 9.2 mph 16.1 mph N/A   Overcast
11:00 AM 32.0 °F 23.0 °F 26.6 °F 80% 30.01 in 10.0 mi SW 11.5 mph 17.3 mph N/A   Overcast
11:20 AM 32.0 °F 24.2 °F 26.6 °F 80% 30.01 in 10.0 mi WSW 9.2 mph 20.7 mph N/A   Overcast
12:05 PM 32.0 °F 23.6 °F 26.6 °F 80% 29.97 in 10.0 mi WSW 10.4 mph 19.6 mph N/A   Overcast
12:25 PM 32.0 °F 23.0 °F 26.6 °F 80% 29.96 in 10.0 mi WSW 11.5 mph 18.4 mph N/A   Overcast
12:45 PM 32.0 °F 26.4 °F 26.6 °F 80% 29.95 in 10.0 mi WSW 5.8 mph 16.1 mph N/A   Overcast
1:30 PM 32.0 °F 23.6 °F 26.6 °F 80% 29.94 in 10.0 mi SW 10.4 mph 17.3 mph N/A   Overcast
1:50 PM 32.0 °F 24.8 °F 26.6 °F 80% 29.95 in 10.0 mi SW 8.1 mph - N/A   Overcast
2:10 PM 32.0 °F 24.2 °F 26.6 °F 80% 29.94 in 10.0 mi WSW 9.2 mph 19.6 mph N/A   Overcast
2:30 PM 32.0 °F 24.2 °F 26.6 °F 80% 29.95 in 10.0 mi WSW 9.2 mph 16.1 mph N/A   Overcast
2:55 PM 32.0 °F 24.8 °F 26.6 °F 80% 29.95 in 10.0 mi WSW 8.1 mph - N/A   Overcast
3:15 PM 32.0 °F 24.8 °F 26.6 °F 80% 29.95 in 10.0 mi WSW 8.1 mph 17.3 mph N/A   Overcast
3:35 PM 32.0 °F 24.8 °F 26.6 °F 80% 29.95 in 10.0 mi WSW 8.1 mph - N/A   Overcast
3:55 PM 32.0 °F 22.5 °F 26.6 °F 80% 29.95 in 10.0 mi WSW 12.7 mph 16.1 mph N/A   Overcast
4:20 PM 32.0 °F 22.1 °F 28.4 °F 87% 29.96 in 10.0 mi WSW 13.8 mph 19.6 mph N/A   Overcast
5:00 PM 30.2 °F 20.2 °F 28.4 °F 93% 29.97 in 10.0 mi WSW 12.7 mph 17.3 mph N/A   Overcast
5:20 PM 30.2 °F 21.9 °F 28.4 °F 93% 29.97 in 10.0 mi WSW 9.2 mph - N/A   Overcast
5:45 PM 30.2 °F 21.9 °F 28.4 °F 93% 29.98 in 10.0 mi WSW 9.2 mph 19.6 mph N/A   Overcast
6:05 PM 30.2 °F 20.2 °F 28.4 °F 93% 29.99 in 7.0 mi WSW 12.7 mph 20.7 mph N/A   Overcast
7:30 PM 30.2 °F 20.2 °F 30.2 °F 100% 30.01 in 4.0 mi West 12.7 mph 16.1 mph N/A   Overcast
7:50 PM 30.2 °F 21.3 °F 30.2 °F 100% 30.01 in 2.5 mi West 10.4 mph 16.1 mph N/A   Overcast
8:10 PM 30.2 °F 21.9 °F 30.2 °F 100% 30.01 in 5.0 mi West 9.2 mph 17.3 mph N/A   Overcast
8:35 PM 30.2 °F 21.3 °F 30.2 °F 100% 30.02 in 3.0 mi West 10.4 mph - N/A   Overcast
8:55 PM 30.2 °F 21.9 °F 30.2 °F 100% 30.01 in 4.0 mi West 9.2 mph - N/A   Overcast
9:15 PM 30.2 °F 20.2 °F 30.2 °F 100% 30.02 in 2.5 mi West 12.7 mph 18.4 mph N/A   Overcast
10:00 PM 30.2 °F 21.3 °F 30.2 °F 100% 30.03 in 3.0 mi WNW 10.4 mph 19.6 mph N/A   Overcast
10:20 PM 30.2 °F 19.8 °F 30.2 °F 100% 30.04 in 3.0 mi West 13.8 mph 20.7 mph N/A   Overcast
10:40 PM 28.4 °F 19.7 °F 28.4 °F 100% 30.05 in 3.0 mi WNW 9.2 mph 20.7 mph N/A   Overcast
11:00 PM 28.4 °F 18.5 °F 28.4 °F 100% 30.06 in 3.0 mi West 11.5 mph 20.7 mph N/A   Overcast
11:05 PM 28.4 °F 17.5 °F 28.4 °F 100% 30.06 in 4.0 mi WNW 13.8 mph 21.9 mph N/A   Overcast
11:25 PM 28.4 °F 19.1 °F 28.4 °F 100% 30.08 in 5.0 mi WNW 10.4 mph 19.6 mph N/A   Overcast
11:45 PM 28.4 °F 17.0 °F 28.4 °F 100% 30.08 in 5.0 mi WNW 15.0 mph 23.0 mph N/A   Overcast